Wind_Speed
6 1 1 5 2 11 17 23 27 21 17 19 19 17 8 13 16 18 21 15 20 19 29 31 28 23 17 14 14 13 15 19 21 21 20 20 18 19 22 24 23 21 19 20
7 4 4 6 5 12 13 15 15 19 17 23 25 24 19 15 21 17 20 28 26 24 20 31 31 29 24 22 17 16 16 17 19 24 24 24 24 26 29 29 27 24 24 26
5 5 8 14 11 11 15 20 16 18 25 20 22 26 23 22 21 25 27 26 27 26 22 21 31 30 28 27 24 19 19 21 24 24 25 29 31 34 35 32 29 27 24 27
9 2 12 14 14 11 14 14 12 17 20 21 23 20 30 19 19 22 28 15 11 16 18 18 19 24 23 23 25 21 22 25 29 31 33 33 33 34 33 33 31 29 26 25
8 7 9 7 10 8 10 9 14 17 19 20 17 11 15 30 25 24 22 12 14 20 16 13 7 17 18 22 24 24 26 28 33 36 38 39 36 37 33 36 31 28 27 25
12 9 14 11 9 10 10 8 12 14 14 6 15 11 24 33 26 15 2 8 14 12 13 3 10 12 10 16 19 21 21 24 27 30 35 39 40 42 40 33 30 27 25 25
9 4 11 13 15 11 12 7 5 5 4 6 20 15 16 17 29 15 2 2 3 3 9 7 7 6 7 12 15 19 23 26 27 30 33 37 41 41 39 28 24 23 25 25
8 6 13 7 15 7 5 5 2 4 3 12 23 6 17 19 11 15 15 8 4 4 6 6 7 5 8 10 14 20 26 28 29 26 30 30 32 30 28 22 20 22 22 26
6 7 7 8 3 9 11 13 10 9 12 8 6 10 9 13 16 6 9 14 10 3 5 7 8 9 7 13 13 20 22 22 22 22 26 24 22 21 20 19 21 22 25 23
17 18 16 9 1 3 12 11 10 8 1 2 4 10 8 16 24 12 8 4 9 10 10 7 8 16 16 12 17 22 21 21 19 21 20 17 16 16 18 19 22 23 23 22
9 11 15 17 9 14 16 15 15 16 7 6 2 7 6 19 19 16 15 10 13 21 21 15 18 19 18 16 23 23 24 22 17 19 16 14 15 18 18 21 24 23 21 23
7 7 11 17 22 23 14 4 15 10 12 14 10 13 15 20 14 10 13 11 13 11 11 6 6 12 16 20 21 22 20 21 17 20 19 17 18 19 21 24 23 20 21 23
12 5 11 16 14 9 9 8 16 14 16 9 7 8 14 16 15 17 16 14 14 19 23 23 19 16 14 17 21 24 22 19 20 24 21 22 20 21 23 23 20 18 19 21
14 12 11 11 16 17 23 22 25 24 20 20 24 27 19 19 25 22 20 21 17 15 21 22 24 24 19 16 20 24 24 23 21 23 21 19 20 23 22 19 18 18 19 23
10 9 14 15 18 24 26 31 36 35 30 27 32 32 25 25 31 31 24 18 11 12 17 23 26 27 28 24 21 25 25 23 23 27 19 16 20 23 20 18 18 18 20 24
10 10 13 18 16 16 22 20 22 24 24 27 30 35 25 29 28 25 23 24 21 20 22 25 30 29 30 32 26 30 26 21 20 23 30 22 19 20 15 17 17 19 22 25
18 17 17 17 17 19 17 27 20 12 13 19 25 28 23 27 27 20 19 20 23 22 20 27 27 26 24 20 26 29 29 22 18 25 29 28 22 16 15 17 18 22 23 27
28 26 22 18 20 4 16 8 12 8 15 12 14 16 13 16 17 15 13 12 13 16 19 23 23 22 23 21 21 25 33 21 15 24 25 32 24 17 15 18 19 19 25 27
17 24 18 9 11 15 23 16 15 14 9 6 11 14 11 10 10 11 7 5 9 11 14 17 22 24 26 23 21 22 23 18 16 22 21 33 26 15 17 17 19 25 27 32
3 7 17 11 4 4 9 8 15 19 8 10 11 15 19 21 17 20 15 12 17 22 22 22 28 33 28 24 22 16 18 18 16 22 28 32 13 13 13 16 21 25 29 33
12 13 20 21 20 10 16 12 18 14 9 6 4 8 12 19 19 17 17 13 14 19 20 20 21 24 21 17 17 21 15 16 21 24 26 11 11 11 15 19 25 28 27 32
19 13 13 19 21 19 21 25 21 18 18 13 10 8 12 15 19 20 21 21 20 23 20 20 21 21 18 17 15 17 18 20 22 16 9 10 11 13 17 20 25 27 30 28
15 14 13 13 14 16 18 22 23 26 26 29 28 19 10 16 24 29 31 29 28 19 24 30 27 22 20 18 16 17 19 17 14 6 7 7 10 15 18 22 25 23 24 26
24 26 31 32 29 26 22 22 25 28 30 30 35 43 28 29 34 38 39 38 36 34 41 36 31 22 20 16 15 15 16 14 6 5 7 10 14 17 22 24 22 23 25 28
33 34 37 43 43 42 40 36 34 34 32 33 36 34 31 35 36 39 45 47 46 44 47 37 28 21 15 14 14 16 16 10 7 9 10 13 16 21 23 22 20 22 26 29
36 36 35 40 33 41 45 46 48 45 45 44 44 44 44 45 42 39 42 42 44 41 44 39 27 18 14 12 15 17 15 8 14 8 17 12 20 23 22 21 20 23 26 30
Wind_Direction
144 17 234 136 301 318 320 313 306 303 324 321 337 333 292 273 276 262 264 270 257 277 265 258 255 257 250 260 272 275 271 258 256 259 261 264 269 271 272 277 283 293 303 300
189 192 48 347 314 299 329 332 333 311 321 328 322 313 300 278 277 282 286 262 257 270 258 246 252 248 247 251 273 266 279 274 270 269 269 267 269 265 267 274 283 296 299 292
261 157 324 309 303 286 306 308 311 324 326 326 327 308 296 273 267 278 279 294 258 245 260 252 246 247 249 252 263 268 283 287 290 286 276 271 268 270 275 283 288 290 290 290
273 256 304 315 323 289 285 326 317 319 330 331 331 312 304 330 307 285 329 248 235 228 252 260 244 242 251 253 255 267 280 287 291 285 283 286 285 282 285 284 287 290 286 284
240 263 297 307 334 283 328 300 312 306 311 320 315 327 308 352 342 335 321 224 234 241 254 243 273 256 250 254 254 267 279 289 292 292 288 286 282 286 282 281 289 292 289 289
260 270 277 267 281 296 295 319 316 290 300 336 335 322 312 348 344 329 240 232 244 234 203 239 264 248 247 253 272 285 288 291 295 294 288 284 284 284 278 285 288 288 284 286
301 308 359 250 254 270 309 309 332 351 4 231 340 320 358 16 30 49 194 101 283 280 259 204 232 253 269 278 291 293 292 292 287 288 275 275 278 279 281 281 278 276 279 287
302 322 350 352 221 243 286 308 246 243 260 295 324 317 24 13 11 33 40 46 204 269 270 224 221 250 275 289 301 302 300 296 296 295 285 280 276 278 276 268 268 265 273 280
260 272 312 49 170 234 253 273 285 294 297 304 321 350 33 18 16 348 28 333 31 80 244 242 253 250 295 316 323 324 311 301 298 295 283 277 267 259 263 258 264 275 279 282
252 266 281 283 134 131 16 311 302 299 252 290 306 325 354 4 3 336 6 235 277 77 39 337 309 313 302 311 337 331 317 305 309 298 291 275 266 263 261 262 266 271 280 287
232 246 261 272 280 309 304 332 322 296 254 182 239 297 277 327 334 328 331 312 340 289 298 278 295 292 301 312 325 321 322 309 304 298 281 268 264 262 265 269 271 277 283 289
321 309 299 288 283 292 284 55 16 4 316 268 256 259 294 312 332 328 321 316 261 277 303 300 298 286 283 289 304 315 325 319 296 291 276 268 263 264 265 267 270 275 283 293
326 316 329 306 303 262 212 281 331 348 349 342 350 316 334 342 322 324 307 305 289 281 298 302 308 311 296 283 294 304 320 321 303 291 281 269 266 265 266 268 271 274 282 292
313 304 293 262 274 290 295 285 303 317 324 318 310 313 318 316 304 303 295 288 291 295 296 299 292 298 302 304 298 296 301 307 312 315 289 277 272 269 273 272 270 273 283 291
274 271 281 278 275 271 285 288 287 299 301 298 297 299 307 309 305 302 302 298 293 275 278 284 286 287 290 295 301 294 292 299 300 336 321 296 277 273 267 267 267 277 288 298
270 279 273 280 288 291 295 297 300 303 308 306 298 293 298 300 292 279 277 280 277 276 272 277 277 283 288 291 306 289 279 281 293 324 337 309 282 267 266 265 269 283 297 305
271 279 284 285 288 294 300 299 300 312 325 305 302 302 302 283 278 267 268 269 270 271 268 270 273 281 291 304 296 285 285 346 324 298 332 327 302 276 279 277 281 290 301 307
277 278 281 281 292 261 287 263 286 324 330 309 294 299 289 265 254 244 249 264 272 270 270 269 284 298 313 312 300 297 313 336 308 303 304 327 314 288 284 275 281 298 305 308
260 258 262 254 244 272 289 231 299 325 340 346 310 278 254 241 216 245 247 282 293 282 277 291 302 310 320 318 309 307 310 322 314 318 291 313 310 294 281 288 303 311 317 316
238 234 245 252 255 236 209 206 277 289 266 304 302 333 314 291 288 271 280 333 328 324 322 315 312 317 325 322 300 279 299 306 301 306 300 309 302 299 294 300 317 318 320 319
278 294 249 253 256 264 270 283 292 279 271 336 321 310 319 309 309 316 318 328 339 330 332 330 326 317 319 339 320 302 297 283 282 289 301 302 292 278 300 321 322 319 315 320
279 280 269 250 253 271 273 265 281 278 270 262 278 271 292 293 287 286 299 313 324 324 320 322 316 310 314 320 330 319 308 295 282 296 293 283 295 312 321 316 317 318 319 325
260 269 265 249 245 252 280 290 290 283 278 267 261 264 282 303 303 306 305 301 306 313 325 327 320 302 296 304 312 312 314 312 305 273 288 306 301 310 311 316 315 322 324 329
262 261 262 266 265 256 248 261 278 283 283 283 280 272 259 289 296 302 305 302 307 305 314 324 320 307 292 286 295 302 308 303 272 274 282 299 301 301 314 323 324 328 330 331
272 273 271 273 273 272 268 272 274 273 274 284 287 291 297 297 290 287 288 294 300 302 303 315 310 303 285 278 291 296 304 291 271 270 265 286 292 303 313 318 324 331 336 331
285 285 281 281 284 278 278 279 279 277 276 276 279 280 282 287 283 281 282 284 289 295 298 305 301 291 275 265 300 298 291 261 245 278 263 284 302 309 313 321 331 335 334 329
Height
3179 3179 3178 3180 3182 3181 3181 3180 3177 3176 3176 3173 3172 3170 3169 3170 3169 3168 3168 3168 3167 3165 3165 3167 3169 3171 3174 3175 3174 3175 3175 3175 3175 3175 3174 3174 3174 3174 3172 3171 3171 3171 3170 3167
3179 3178 3179 3180 3180 3180 3181 3179 3176 3173 3172 3171 3166 3164 3164 3164 3163 3162 3161 3161 3162 3162 3162 3163 3164 3167 3170 3172 3172 3172 3173 3173 3174 3173 3173 3172 3172 3170 3167 3166 3167 3167 3165 3156
3178 3178 3179 3180 3178 3179 3179 3177 3175 3173 3169 3169 3164 3159 3159 3160 3158 3158 3156 3153 3151 3155 3157 3157 3160 3163 3166 3167 3168 3169 3170 3170 3169 3169 3169 3168 3167 3164 3163 3162 3164 3161 3161 3157
3177 3176 3176 3177 3177 3177 3176 3175 3173 3172 3170 3167 3167 3162 3157 3156 3153 3152 3148 3145 3146 3150 3154 3156 3156 3158 3161 3164 3166 3166 3166 3166 3165 3164 3162 3160 3160 3158 3158 3155 3156 3156 3155 3152
3175 3173 3174 3174 3174 3175 3175 3174 3173 3171 3170 3168 3166 3165 3155 3155 3151 3147 3144 3144 3146 3148 3151 3153 3154 3157 3159 3162 3165 3165 3163 3162 3160 3158 3156 3153 3153 3152 3153 3151 3151 3151 3148 3144
3173 3173 3173 3172 3173 3174 3173 3173 3172 3169 3169 3169 3168 3167 3154 3156 3148 3146 3145 3144 3144 3146 3149 3150 3155 3156 3158 3161 3162 3161 3159 3157 3154 3152 3150 3147 3145 3144 3144 3146 3146 3144 3143 3142
3172 3171 3172 3169 3171 3173 3172 3172 3172 3172 3171 3170 3168 3167 3162 3158 3152 3147 3150 3148 3147 3148 3148 3150 3153 3154 3155 3157 3157 3156 3154 3153 3150 3146 3145 3141 3140 3138 3138 3141 3142 3140 3138 3137
3172 3170 3169 3165 3168 3171 3171 3171 3172 3174 3174 3167 3167 3165 3163 3159 3156 3153 3152 3149 3147 3148 3148 3149 3150 3151 3152 3154 3154 3153 3150 3148 3145 3141 3138 3137 3135 3134 3132 3135 3135 3134 3132 3133
3172 3169 3169 3169 3169 3170 3171 3169 3169 3168 3167 3167 3165 3164 3160 3157 3154 3155 3154 3153 3150 3148 3148 3149 3149 3150 3151 3152 3152 3151 3147 3142 3138 3136 3132 3131 3130 3129 3130 3129 3129 3127 3126 3126
3170 3169 3169 3169 3170 3170 3169 3169 3167 3165 3167 3168 3163 3163 3162 3158 3156 3155 3155 3154 3151 3149 3148 3150 3151 3150 3149 3148 3147 3145 3141 3138 3135 3132 3128 3126 3126 3125 3125 3126 3125 3124 3122 3121
3167 3168 3168 3168 3169 3169 3169 3168 3169 3166 3164 3164 3165 3162 3160 3158 3156 3154 3152 3152 3147 3146 3145 3147 3147 3145 3145 3144 3143 3141 3138 3134 3132 3129 3125 3124 3123 3122 3122 3120 3118 3118 3117 3114
3167 3166 3165 3165 3166 3166 3169 3168 3167 3168 3164 3160 3158 3158 3158 3156 3153 3151 3150 3149 3146 3144 3145 3143 3144 3144 3144 3143 3141 3137 3132 3127 3125 3122 3121 3120 3119 3118 3117 3115 3114 3113 3111 3109
3166 3166 3165 3161 3164 3162 3162 3164 3165 3164 3163 3160 3161 3158 3156 3153 3150 3149 3148 3144 3144 3143 3138 3138 3137 3137 3138 3136 3133 3129 3127 3125 3124 3120 3118 3116 3115 3114 3112 3111 3110 3109 3107 3104
3163 3163 3165 3165 3164 3163 3161 3159 3160 3162 3162 3158 3155 3151 3150 3150 3146 3141 3141 3139 3140 3139 3136 3133 3132 3131 3130 3129 3127 3125 3122 3119 3117 3114 3110 3110 3110 3107 3106 3105 3105 3103 3101 3098
3160 3160 3161 3161 3161 3160 3159 3157 3154 3155 3157 3156 3150 3144 3148 3146 3142 3137 3134 3133 3134 3134 3133 3130 3128 3126 3124 3122 3122 3121 3115 3116 3115 3111 3106 3103 3101 3100 3100 3100 3099 3098 3095 3091
3157 3157 3156 3155 3157 3156 3154 3155 3155 3153 3150 3146 3141 3138 3145 3139 3134 3131 3129 3131 3130 3130 3128 3125 3122 3122 3119 3115 3117 3111 3110 3108 3106 3104 3103 3099 3095 3094 3095 3094 3093 3092 3089 3085
3156 3155 3154 3151 3153 3152 3152 3151 3149 3149 3146 3142 3137 3133 3136 3133 3128 3125 3124 3124 3123 3123 3124 3120 3116 3116 3113 3115 3112 3107 3089 3080 3102 3099 3098 3095 3092 3091 3091 3090 3089 3086 3082 3078
3148 3149 3150 3148 3149 3149 3146 3145 3146 3145 3142 3139 3136 3132 3129 3126 3124 3122 3121 3119 3119 3118 3118 3115 3113 3112 3109 3109 3106 3104 3101 3094 3098 3099 3095 3092 3088 3087 3087 3086 3084 3080 3076 3071
3142 3144 3143 3144 3144 3142 3143 3141 3139 3139 3139 3133 3132 3130 3127 3125 3122 3120 3119 3116 3115 3113 3113 3113 3110 3107 3105 3104 3105 3100 3099 3095 3096 3096 3092 3090 3086 3084 3084 3083 3081 3076 3072 3066
3140 3140 3141 3141 3141 3139 3135 3135 3136 3134 3132 3129 3128 3127 3123 3121 3120 3118 3117 3116 3115 3111 3110 3109 3106 3103 3101 3097 3095 3095 3096 3095 3095 3090 3087 3085 3083 3083 3081 3078 3075 3071 3065 3061
3137 3137 3136 3136 3136 3134 3133 3130 3132 3131 3131 3125 3123 3122 3121 3119 3118 3116 3113 3115 3113 3109 3108 3106 3104 3101 3099 3097 3092 3090 3088 3088 3088 3084 3082 3080 3080 3078 3077 3075 3070 3065 3062 3057
3135 3134 3133 3133 3133 3131 3128 3125 3127 3125 3122 3122 3120 3116 3115 3116 3114 3113 3112 3109 3108 3106 3105 3104 3102 3100 3097 3094 3092 3089 3086 3084 3081 3079 3077 3077 3077 3076 3074 3071 3067 3062 3057 3051
3133 3130 3129 3130 3127 3124 3120 3118 3117 3117 3116 3117 3116 3114 3107 3109 3109 3106 3103 3105 3105 3102 3100 3098 3098 3096 3092 3090 3088 3085 3081 3079 3077 3076 3076 3076 3074 3072 3070 3067 3063 3058 3053 3049
3128 3126 3122 3121 3119 3118 3117 3114 3110 3108 3106 3104 3104 3103 3101 3102 3103 3100 3097 3097 3096 3094 3090 3089 3091 3089 3087 3084 3082 3081 3078 3076 3075 3075 3075 3074 3071 3068 3066 3063 3058 3054 3051 3046
3120 3119 3115 3111 3111 3110 3110 3107 3104 3102 3101 3098 3096 3094 3093 3091 3094 3093 3091 3089 3088 3088 3084 3083 3084 3082 3081 3080 3078 3077 3075 3074 3074 3073 3073 3071 3069 3065 3062 3059 3055 3051 3048 3043
3110 3109 3106 3097 3102 3098 3094 3095 3094 3094 3094 3091 3089 3088 3087 3086 3085 3085 3084 3084 3082 3082 3078 3077 3078 3076 3075 3074 3074 3072 3071 3071 3070 3071 3069 3069 3066 3062 3058 3056 3052 3049 3045 3039